61P/Shajn-Schaldach (2022)

Japanese version
Home page
Updated on March 26, 2023

---------------------------------------------------------------------

* Profile

* Pictures

* Orbital Elements

Epoch 2023 Feb. 25.0 TT = JDT 2460000.5
T 2022 Oct. 23.75733 TT                                 Rudenko
q   2.1257814            (2000.0)            P               Q
n   0.13907569     Peri.  221.64368     +0.90812898     -0.41756900
a   3.6895089      Node   162.96192     +0.40644583     +0.86164903
e   0.4238308      Incl.    5.99949     +0.10051640     +0.28843906
P   7.09
>From 2663 observations 2000 Apr. 22-2023 Feb. 23, mean residual 1".1.
     Nongravitational parameters A1 = -0.02, A2 = -0.2704.

* Finding Charts

* Magnitudes Graph

        m1 = 8.0 + 5 log d + 20.0 log r

---------------------------------------------------------------------

The orbital elements are published on M.P.E.C. 2023-F81.
The charts are made with StellaNavigator Ver.10 (AstroArts).
The magnitudes graphs are made with Comet for Windows.

---------------------------------------------------------------------

Copyright(C) Seiichi Yoshida (comet@aerith.net). All rights reserved.